Temp
-11 -11 -11 -11 -11 -11 -11 -11 -11 -11 -11 -11 -11 -11 -11 -11 -11 -11 -11 -11 -11 -10 -11 -11 -11 -11 -11 -11 -11 -11 -12 -12 -12 -12 -12 -12 -12 -12
-11 -11 -12 -11 -11 -12 -12 -12 -11 -11 -12 -12 -12 -12 -11 -11 -11 -11 -11 -11 -11 -11 -11 -11 -11 -11 -11 -11 -11 -12 -12 -12 -12 -12 -12 -12 -12 -12
-11 -12 -12 -12 -12 -12 -12 -12 -12 -12 -12 -12 -12 -12 -12 -12 -11 -11 -11 -11 -11 -11 -11 -11 -11 -11 -11 -12 -12 -12 -12 -12 -12 -12 -12 -12 -12 -12
-12 -12 -12 -12 -13 -13 -13 -13 -13 -13 -13 -13 -13 -13 -12 -12 -12 -12 -11 -11 -11 -11 -11 -11 -11 -11 -12 -12 -12 -12 -12 -12 -13 -12 -13 -13 -12 -12
-12 -12 -13 -13 -13 -13 -13 -14 -14 -13 -13 -13 -13 -13 -13 -12 -12 -12 -12 -12 -12 -12 -11 -11 -11 -12 -12 -12 -12 -12 -12 -12 -13 -13 -13 -13 -13 -13
-12 -13 -13 -13 -14 -14 -14 -14 -14 -14 -14 -14 -13 -13 -13 -13 -12 -12 -12 -12 -12 -12 -12 -12 -12 -12 -12 -12 -12 -12 -12 -13 -13 -13 -13 -13 -13 -13
-13 -13 -13 -13 -14 -14 -14 -14 -14 -14 -14 -14 -14 -13 -13 -13 -13 -13 -12 -12 -12 -12 -12 -12 -12 -12 -12 -12 -13 -13 -13 -13 -13 -13 -13 -13 -13 -13
-13 -13 -14 -14 -14 -14 -14 -14 -14 -14 -14 -14 -14 -14 -13 -13 -13 -13 -13 -13 -13 -13 -13 -12 -13 -13 -13 -13 -13 -13 -13 -13 -13 -13 -13 -14 -14 -14
-14 -14 -14 -14 -14 -14 -14 -14 -14 -15 -14 -14 -14 -14 -14 -14 -14 -14 -13 -13 -13 -13 -13 -13 -13 -13 -13 -13 -13 -13 -13 -13 -13 -14 -14 -14 -14 -14
-14 -14 -14 -14 -14 -14 -14 -14 -14 -15 -15 -15 -14 -14 -14 -14 -14 -14 -13 -13 -14 -13 -13 -14 -13 -13 -14 -13 -13 -13 -13 -13 -13 -14 -14 -14 -14 -14
-14 -14 -14 -14 -14 -15 -15 -15 -15 -15 -15 -15 -15 -14 -14 -14 -14 -14 -14 -14 -14 -14 -14 -13 -14 -14 -14 -14 -14 -14 -14 -14 -14 -14 -14 -14 -14 -15
-14 -14 -14 -14 -15 -15 -15 -15 -15 -15 -15 -15 -15 -15 -15 -15 -15 -14 -14 -14 -14 -14 -15 -14 -14 -14 -14 -15 -15 -14 -14 -14 -14 -14 -14 -15 -15 -15
-14 -14 -14 -14 -15 -15 -15 -15 -15 -15 -15 -15 -15 -15 -15 -15 -15 -15 -15 -15 -14 -14 -15 -14 -14 -15 -14 -14 -15 -16 -15 -15 -15 -15 -15 -15 -15 -15
-14 -15 -15 -15 -15 -15 -15 -15 -15 -15 -15 -15 -16 -16 -15 -15 -15 -15 -15 -15 -15 -15 -15 -15 -15 -15 -15 -15 -15 -16 -16 -16 -16 -16 -15 -15 -15 -16
-15 -14 -15 -15 -15 -15 -15 -15 -15 -16 -16 -16 -15 -15 -15 -16 -16 -16 -15 -15 -15 -15 -15 -15 -15 -15 -15 -15 -15 -15 -16 -17 -17 -16 -16 -16 -16 -16
-14 -15 -15 -16 -15 -16 -16 -16 -16 -16 -16 -15 -16 -16 -15 -16 -16 -16 -16 -16 -16 -16 -16 -16 -16 -16 -16 -16 -15 -15 -16 -16 -17 -17 -16 -16 -16 -16
-15 -15 -16 -16 -16 -16 -16 -16 -16 -16 -16 -16 -15 -15 -16 -16 -16 -16 -16 -16 -16 -16 -17 -16 -16 -16 -16 -16 -16 -16 -16 -16 -16 -17 -17 -17 -17 -17
-16 -16 -16 -17 -16 -16 -17 -16 -16 -16 -16 -16 -16 -16 -16 -16 -17 -17 -17 -17 -17 -17 -17 -17 -17 -17 -17 -16 -16 -16 -16 -16 -17 -17 -16 -16 -16 -17
-17 -17 -17 -17 -17 -17 -17 -17 -17 -17 -17 -17 -17 -17 -17 -17 -17 -17 -17 -17 -17 -17 -17 -17 -18 -18 -17 -17 -17 -17 -17 -17 -17 -17 -16 -16 -16 -16
-18 -17 -17 -17 -17 -17 -17 -17 -17 -18 -18 -18 -18 -18 -18 -18 -18 -18 -18 -18 -17 -17 -18 -18 -18 -18 -18 -18 -17 -17 -17 -17 -17 -17 -17 -17 -17 -17
-18 -18 -18 -18 -18 -17 -18 -18 -18 -18 -18 -18 -18 -18 -19 -19 -19 -19 -18 -18 -18 -18 -19 -19 -19 -19 -18 -18 -18 -18 -18 -18 -18 -18 -17 -18 -18 -17
-19 -19 -18 -19 -18 -18 -18 -19 -18 -18 -19 -19 -19 -19 -19 -19 -19 -19 -19 -19 -19 -19 -19 -19 -19 -19 -19 -19 -18 -18 -18 -18 -18 -19 -18 -18 -18 -17
-20 -20 -19 -19 -19 -19 -19 -19 -19 -20 -20 -20 -20 -20 -20 -20 -19 -20 -19 -19 -19 -20 -20 -20 -20 -20 -19 -19 -19 -19 -18 -18 -18 -19 -19 -20 -20 -20
Height
5825 5829 5832 5835 5839 5841 5843 5846 5848 5850 5852 5854 5857 5858 5859 5860 5860 5860 5860 5859 5858 5857 5856 5854 5851 5849 5846 5843 5839 5836 5834 5830 5827 5824 5821 5818 5816 5812
5816 5820 5824 5827 5830 5833 5836 5838 5840 5842 5845 5847 5850 5852 5854 5855 5856 5856 5855 5855 5854 5853 5852 5850 5847 5845 5843 5840 5837 5833 5830 5828 5825 5822 5819 5816 5813 5810
5807 5811 5814 5817 5820 5824 5827 5830 5832 5835 5837 5840 5843 5845 5848 5850 5850 5851 5850 5850 5849 5848 5847 5845 5843 5841 5839 5836 5834 5831 5828 5824 5821 5819 5816 5813 5810 5808
5798 5801 5804 5808 5811 5815 5818 5821 5823 5826 5829 5832 5835 5838 5840 5842 5844 5844 5845 5844 5844 5843 5841 5840 5838 5836 5835 5832 5829 5827 5824 5821 5818 5815 5812 5810 5807 5804
5788 5792 5794 5798 5802 5806 5809 5812 5815 5818 5821 5825 5827 5831 5833 5835 5836 5837 5838 5837 5837 5836 5835 5834 5832 5831 5829 5827 5824 5822 5819 5816 5814 5811 5809 5806 5803 5800
5779 5783 5786 5791 5795 5798 5801 5804 5808 5811 5814 5816 5819 5822 5825 5827 5829 5830 5830 5830 5830 5829 5829 5828 5826 5824 5823 5821 5819 5816 5813 5811 5809 5806 5804 5801 5798 5795
5770 5773 5777 5782 5785 5789 5793 5796 5799 5802 5806 5808 5810 5813 5816 5818 5820 5822 5822 5822 5822 5822 5821 5821 5819 5817 5817 5815 5813 5811 5808 5806 5803 5800 5797 5795 5792 5789
5760 5764 5768 5772 5776 5779 5784 5787 5790 5794 5798 5800 5802 5805 5806 5809 5811 5813 5813 5813 5814 5813 5813 5812 5811 5809 5809 5807 5805 5804 5801 5799 5796 5794 5791 5788 5785 5782
5749 5753 5758 5762 5766 5769 5772 5777 5781 5785 5788 5791 5794 5796 5797 5799 5803 5803 5804 5805 5805 5805 5805 5803 5803 5802 5801 5798 5796 5795 5794 5791 5788 5786 5783 5780 5777 5774
5737 5742 5747 5751 5755 5758 5761 5765 5771 5775 5778 5781 5784 5786 5788 5790 5792 5793 5794 5795 5796 5796 5796 5796 5794 5793 5791 5788 5786 5785 5784 5782 5779 5777 5774 5772 5768 5766
5723 5728 5734 5739 5745 5748 5752 5756 5760 5763 5766 5769 5773 5775 5777 5779 5780 5782 5782 5784 5785 5785 5785 5786 5785 5785 5783 5780 5778 5776 5774 5772 5770 5767 5765 5761 5758 5755
5712 5717 5722 5727 5731 5735 5739 5743 5747 5751 5752 5756 5760 5763 5764 5766 5769 5770 5770 5771 5773 5775 5774 5774 5774 5773 5775 5772 5768 5765 5763 5762 5759 5756 5754 5750 5747 5744
5693 5700 5706 5712 5716 5721 5725 5730 5734 5736 5738 5743 5746 5749 5751 5753 5756 5757 5758 5760 5760 5762 5761 5762 5762 5761 5760 5761 5759 5755 5753 5751 5748 5744 5740 5737 5734 5732
5681 5685 5693 5697 5701 5706 5710 5713 5718 5722 5724 5727 5731 5734 5737 5739 5741 5742 5745 5746 5747 5748 5748 5747 5748 5747 5747 5748 5747 5744 5740 5739 5736 5731 5727 5724 5722 5720
5668 5673 5677 5681 5686 5690 5694 5699 5703 5706 5710 5712 5715 5718 5721 5723 5725 5727 5729 5731 5732 5732 5733 5732 5733 5733 5734 5733 5733 5732 5729 5726 5721 5717 5714 5712 5710 5708
5654 5657 5661 5663 5668 5672 5676 5680 5684 5689 5693 5696 5699 5702 5704 5706 5708 5711 5713 5714 5715 5716 5716 5716 5717 5716 5717 5717 5716 5717 5714 5711 5708 5703 5702 5699 5696 5694
5637 5641 5643 5646 5650 5654 5660 5664 5668 5671 5674 5677 5681 5683 5686 5689 5691 5693 5694 5696 5697 5699 5699 5698 5698 5699 5700 5701 5700 5699 5697 5694 5692 5690 5687 5685 5683 5679
5618 5621 5626 5628 5632 5635 5640 5645 5649 5652 5656 5660 5664 5667 5669 5671 5672 5675 5676 5677 5679 5681 5682 5681 5680 5680 5683 5684 5683 5682 5679 5679 5676 5673 5670 5670 5671 5664
5598 5603 5606 5611 5615 5620 5623 5626 5631 5635 5638 5642 5645 5648 5650 5652 5654 5655 5657 5659 5661 5663 5663 5664 5663 5662 5664 5667 5668 5663 5662 5660 5657 5656 5653 5652 5652 5651
5579 5583 5587 5592 5597 5602 5604 5608 5611 5615 5618 5621 5625 5627 5630 5632 5634 5637 5639 5641 5643 5644 5645 5644 5644 5643 5644 5646 5648 5650 5645 5642 5637 5637 5634 5631 5631 5630
5557 5563 5568 5573 5577 5581 5584 5588 5590 5594 5596 5600 5604 5606 5609 5613 5614 5616 5619 5621 5623 5624 5626 5626 5624 5622 5623 5624 5626 5629 5628 5622 5616 5615 5614 5611 5610 5611
5535 5541 5546 5552 5557 5561 5564 5568 5570 5572 5576 5579 5582 5585 5589 5592 5593 5596 5598 5599 5601 5603 5604 5605 5604 5601 5599 5601 5604 5605 5605 5603 5598 5592 5589 5586 5584 5587
5514 5519 5524 5529 5534 5539 5543 5546 5549 5552 5555 5558 5561 5564 5567 5568 5572 5573 5576 5578 5578 5579 5580 5580 5579 5579 5577 5576 5577 5581 5579 5578 5575 5573 5570 5559 5557 5557
Wind_Speed
42 41 41 41 41 39 36 33 29 29 29 30 30 29 26 24 21 18 17 16 17 19 21 23 24 25 26 28 28 26 24 24 24 23 24 23 22 21
43 42 41 41 41 40 37 33 32 32 32 33 32 31 29 27 24 21 18 18 18 20 23 24 25 26 27 28 28 27 26 25 25 24 25 25 24 23
40 39 41 42 42 40 37 35 35 35 34 35 34 33 30 28 26 23 20 20 20 22 24 25 26 26 28 29 28 28 28 26 25 26 26 26 26 25
38 37 38 39 39 39 38 37 38 37 36 35 34 33 32 29 27 25 22 22 22 23 25 26 28 28 29 29 29 28 28 28 26 26 26 27 27 27
39 37 35 35 35 35 36 37 38 38 37 35 34 32 32 31 30 28 26 25 25 25 27 28 28 29 31 30 31 31 30 30 28 27 27 27 29 30
40 38 37 34 34 34 34 36 37 37 36 35 34 33 33 33 32 30 29 28 28 29 29 29 30 31 32 32 32 32 32 32 32 29 28 29 31 31
42 39 37 36 37 37 37 38 39 38 37 36 36 35 35 35 35 32 31 31 31 31 32 31 32 33 33 34 34 33 34 33 34 33 32 32 34 35
47 44 43 41 39 39 40 41 41 40 38 38 38 37 38 38 36 33 34 34 33 34 34 34 35 36 36 37 37 35 36 36 35 35 35 35 37 38
50 47 44 43 43 43 42 42 43 42 40 41 40 41 41 40 36 37 38 37 36 35 35 37 37 38 39 40 40 39 38 38 39 38 38 39 41 41
56 54 53 49 48 47 47 46 45 44 44 44 43 43 42 41 40 41 41 40 39 37 39 37 40 40 40 42 43 43 41 41 42 41 40 44 47 45
57 56 58 56 55 52 50 50 50 48 47 47 47 46 45 45 44 43 43 43 42 41 42 42 41 42 41 42 44 44 44 44 43 43 48 51 50 47
69 56 57 47 49 54 54 55 55 54 52 52 51 50 50 48 47 47 47 47 46 45 44 50 47 46 43 42 44 46 47 46 48 51 53 53 51 48
63 63 62 61 48 49 57 59 61 60 58 56 56 55 54 52 50 50 51 50 51 52 51 51 50 49 48 47 45 47 47 48 53 54 54 53 50 47
76 70 63 55 54 55 53 54 63 66 64 63 62 62 59 60 60 60 58 56 57 56 56 55 54 54 52 52 52 51 50 52 54 55 54 52 50 48
67 68 62 60 55 54 58 57 58 61 61 65 69 69 68 65 64 61 60 61 60 60 60 60 59 57 57 56 55 54 54 56 56 56 54 51 49 47
71 71 64 61 63 62 59 55 56 61 62 64 64 68 72 67 65 61 63 64 64 64 64 63 62 60 61 60 59 58 58 58 57 56 52 50 48 49
71 73 65 69 65 61 68 67 64 66 68 68 69 69 64 60 62 64 65 66 65 65 67 66 66 66 65 62 62 59 58 57 55 52 51 51 52 54
82 74 68 65 66 64 67 65 64 66 67 66 61 61 63 64 64 67 67 68 66 65 67 69 69 67 66 64 61 60 58 55 53 54 55 55 56 59
73 75 74 69 67 68 65 65 67 68 68 68 68 66 65 66 67 69 69 66 67 67 67 69 67 65 63 60 59 62 61 60 60 61 63 62 61 62
74 76 73 68 70 73 69 75 72 67 64 68 69 70 73 72 71 71 73 73 69 68 67 68 69 68 69 68 67 64 66 66 68 67 66 68 69 70
90 84 76 72 73 81 81 81 78 75 74 77 77 75 75 71 68 70 72 71 69 66 67 68 73 75 76 76 75 73 71 71 73 74 74 74 75 75
91 89 93 83 79 82 82 76 75 76 69 70 74 77 77 74 73 75 77 77 76 74 74 74 74 76 76 77 76 75 74 76 78 79 80 82 82 81
83 80 80 83 85 85 81 82 80 77 77 78 74 74 77 73 78 78 78 80 78 78 83 83 82 81 80 81 80 80 80 81 82 83 83 85 84 83
Wind_Direction
245 245 244 246 247 249 251 253 255 254 250 247 243 245 249 256 265 275 284 295 306 317 323 326 329 332 338 341 342 340 339 339 336 334 333 332 329 333
246 247 247 248 248 250 251 250 251 249 247 246 244 245 248 254 262 271 283 294 304 312 316 321 323 326 331 336 338 337 336 337 337 334 332 331 329 328
246 247 249 250 250 249 249 248 248 247 245 246 245 245 248 252 261 271 281 290 297 304 310 315 316 321 323 330 335 335 334 332 332 334 333 332 331 327
244 244 247 249 249 248 245 244 245 244 244 244 245 248 251 256 264 272 280 287 292 299 304 309 311 315 317 324 329 330 330 327 326 329 329 330 330 328
247 245 244 245 245 245 243 239 240 242 242 243 244 246 251 256 263 270 278 283 288 294 298 303 305 310 312 318 322 324 326 323 320 319 324 324 321 321
246 247 246 243 244 244 242 240 241 242 243 245 245 247 251 256 262 269 276 280 285 292 294 297 301 304 307 312 316 318 320 319 317 313 314 320 321 318
244 242 242 244 244 243 242 241 242 242 242 244 246 248 252 257 262 268 273 277 282 286 291 294 296 299 303 307 309 312 314 315 314 311 310 313 318 317
242 241 243 242 242 243 241 240 241 242 243 245 246 249 253 258 263 268 270 273 278 283 287 290 293 297 301 303 305 307 310 311 310 308 307 308 313 315
239 237 236 242 243 243 242 242 244 245 247 248 250 252 255 258 263 265 267 271 274 279 284 288 291 294 298 299 301 303 307 307 307 308 306 308 310 311
238 235 242 238 241 242 243 243 245 246 249 251 252 255 258 260 262 264 267 270 273 277 281 285 289 292 295 297 299 302 305 305 304 305 306 306 307 306
236 241 237 241 243 244 245 247 248 247 249 252 253 255 257 259 261 264 267 269 272 276 280 282 285 288 291 294 296 299 301 300 300 301 303 304 303 302
232 233 232 242 246 242 242 245 247 248 250 254 256 257 258 259 261 263 265 269 273 276 278 283 285 286 289 292 295 297 298 296 298 301 301 301 299 297
230 237 245 240 239 247 245 244 244 246 250 252 254 257 258 260 260 263 266 268 272 276 276 279 282 284 287 289 291 292 291 293 297 298 297 296 295 294
235 242 237 241 244 244 246 250 249 249 248 247 254 254 254 258 259 264 265 267 270 272 274 277 279 281 283 285 288 288 288 292 295 295 294 293 293 292
234 230 228 244 243 245 248 246 252 250 252 254 252 254 253 260 259 262 261 267 269 270 272 273 276 279 281 283 285 286 287 291 293 291 291 290 289 288
230 258 244 244 250 251 247 258 253 256 254 254 257 258 257 258 260 259 263 264 266 268 271 273 276 277 279 281 284 286 288 289 289 288 287 286 286 289
246 241 245 256 253 261 256 253 261 256 255 255 254 254 252 252 257 261 262 262 266 268 270 272 274 276 278 281 283 285 286 287 286 283 281 283 287 290
241 252 250 258 261 258 256 257 253 251 251 250 248 253 258 260 260 260 260 263 265 267 270 271 273 276 278 280 282 284 286 287 283 280 280 283 287 288
248 247 239 257 253 246 248 252 250 249 247 252 257 259 256 258 259 259 262 263 267 269 269 270 270 273 274 276 282 285 287 285 283 283 285 286 286 286
247 238 243 249 253 247 248 244 247 250 252 255 256 255 254 255 257 260 262 265 265 266 267 268 270 271 273 276 280 286 284 283 283 284 283 285 287 286
249 248 250 251 252 246 244 243 243 244 246 250 250 251 253 257 258 260 261 263 265 264 266 269 273 274 276 279 281 282 282 281 281 282 282 284 284 285
253 251 253 253 251 245 248 246 244 242 242 247 246 246 249 251 253 255 258 262 265 266 266 271 273 274 275 278 280 280 281 280 280 282 284 285 285 284
242 242 243 245 245 244 244 247 249 252 256 259 263 264 263 264 254 254 260 267 271 270 269 275 277 279 278 277 278 277 277 278 279 280 283 283 284 285